This demonstration page uses our WeatherBlox Daily Observations layout. Learn more.

Left ArrowRight Arrow

Hourly Observations for October 12, 2021

Temp ( °F °C ) Dew Point ( °F °C ) Humidity (%) Winds ( mph kmh ) Pressure ( in mb ) Visibility ( mi km ) Precip ( " mm )
12:15 am 00:15 Clear 54 12.3 40 4.3 58 58 E 8 13 29.86 1011 10 16 N/A
12:35 am 00:35 Clear 54 12.2 40 4.2 58 58 E 8 13 29.86 1011 10 16 N/A
12:55 am 00:55 Clear 51 10.6 40 4.2 65 65 E 6 9 29.88 1012 10 16 N/A
1:15 am 01:15 Clear 50 9.8 39 4 67 67 E 8 13 29.88 1012 10 16 N/A
1:35 am 01:35 Clear 52 11.3 40 4.4 63 63 E 9 15 29.87 1012 10 16 N/A
1:55 am 01:55 Clear 54 12.1 39 4 58 58 E 9 15 29.87 1012 10 16 N/A
2:15 am 02:15 Clear 53 11.5 40 4.2 61 61 E 9 15 29.88 1012 10 16 N/A
2:35 am 02:35 Clear 51 10.7 40 4.5 66 66 E 9 15 29.89 1012 10 16 N/A
2:55 am 02:55 Clear 52 11.1 41 5 66 66 E 9 15 29.88 1012 10 16 N/A
3:15 am 03:15 Clear 50 10.1 41 5 71 71 E 8 13 29.89 1012 10 16 N/A
3:35 am 03:35 Clear 50 10 41 5 71 71 E 9 15 29.89 1012 10 16 N/A
3:55 am 03:55 Clear 49 9.5 41 5.1 74 74 E 6 9 29.91 1013 10 16 N/A
4:15 am 04:15 Clear 49 9.4 42 5.3 76 76 E 10 17 29.90 1012 10 16 N/A
4:35 am 04:35 Clear 50 9.8 42 5.5 75 75 E 9 15 29.89 1012 10 16 N/A
4:55 am 04:55 Clear 50 10 42 5.3 73 73 E 9 15 29.89 1012 10 16 N/A
5:15 am 05:15 Clear 49 9.6 41 5.2 74 74 E 9 15 29.90 1012 10 16 N/A
5:35 am 05:35 Clear 48 8.8 41 5 77 77 E 8 13 29.91 1013 10 16 N/A
5:55 am 05:55 Clear 47 8.3 41 5.1 80 80 E 7 11 29.92 1013 10 16 N/A
6:15 am 06:15 Clear 47 8.1 41 5 81 81 E 3 6 29.93 1014 10 16 N/A
6:35 am 06:35 Clear 46 8 40 4.7 80 80 E 7 11 29.93 1014 10 16 N/A
6:55 am 06:55 Clear 47 8.2 41 5 80 80 E 9 15 29.92 1013 10 16 N/A
7:15 am 07:15 Clear 47 8.2 41 5.1 81 81 E 10 17 29.92 1013 10 16 N/A
7:35 am 07:35 Clear 47 8.3 41 4.9 79 79 E 10 17 29.92 1013 10 16 N/A
7:55 am 07:55 Sunny 46 8 41 5 82 82 E 10 17 29.92 1013 10 16 N/A
8:15 am 08:15 Sunny 47 8.1 41 5.2 82 82 E 9 15 29.93 1014 10 16 N/A
8:35 am 08:35 Sunny 49 9.6 43 6 78 78 E 10 17 29.91 1013 10 16 N/A
8:55 am 08:55 Sunny 51 10.5 43 6.3 75 75 E 9 15 29.90 1012 10 16 N/A
9:15 am 09:15 Sunny 54 12 45 7.2 73 73 ESE 10 17 29.90 1012 10 16 N/A
9:35 am 09:35 Sunny 56 13.3 46 7.8 70 70 ESE 10 17 29.88 1012 10 16 N/A
9:55 am 09:55 Sunny 58 14.3 46 7.8 65 65 ESE 12 19 29.88 1012 10 16 N/A
10:15 am 10:15 Sunny 60 15.5 46 7.9 61 61 SE 12 19 29.87 1011 10 16 N/A
10:35 am 10:35 Sunny 63 17.3 46 7.9 54 54 SSE 15 24 29.85 1011 10 16 N/A
10:55 am 10:55 Sunny 65 18.5 46 7.6 49 49 SSE 16 26 29.83 1010 7 11 N/A
11:15 am 11:15 Sunny 66 18.9 45 7.2 47 47 SE 18 30 29.81 1009 10 16 N/A
11:35 am 11:35 Sunny 68 19.9 45 7.3 44 44 SE 21 33 29.79 1009 7 11 N/A
11:55 am 11:55 Hazy 69 20.6 44 6.8 41 41 SSE 24 39 29.77 1008 5 8 N/A
12:15 pm 12:15 Partly Cloudy 71 21.5 44 6.7 38 38 SSE 26 43 29.76 1008 10 16 N/A
12:35 pm 12:35 Hazy 71 21.9 42 5.8 35 35 SSE 25 41 29.75 1008 5 8 N/A
12:55 pm 12:55 Partly Cloudy 69 20.5 43 6.2 40 40 SSE 22 35 29.75 1008 7 11 N/A
1:15 pm 13:15 Partly Cloudy 70 21.1 44 6.5 39 39 SE 25 41 29.72 1006 10 16 N/A
1:35 pm 13:35 Mostly Cloudy 71 21.5 42 5.8 36 36 SSE 24 39 29.73 1007 10 16 N/A
1:55 pm 13:55 Mostly Cloudy with Haze 69 20.8 43 6.1 39 39 SSE 17 28 29.70 1006 4 6 N/A
2:15 pm 14:15 Cloudy 70 21 43 6.2 38 38 SE 24 39 29.70 1006 10 16 N/A
2:35 pm 14:35 Cloudy 72 22.1 42 5.4 34 34 SSE 21 33 29.68 1005 7 11 N/A
2:55 pm 14:55 Cloudy 71 21.9 40 4.5 32 32 SSE 25 41 29.66 1004 7 11 N/A
3:15 pm 15:15 Cloudy 70 21.2 41 5.2 35 35 SSE 24 39 29.67 1005 7 11 N/A
3:35 pm 15:35 Cloudy 70 21 42 5.3 36 36 SE 25 41 29.66 1004 10 16 N/A
3:55 pm 15:55 Cloudy 70 21 41 4.9 35 35 SSE 22 35 29.66 1004 7 11 N/A
4:15 pm 16:15 Cloudy with Haze 70 21.3 41 5.2 35 35 SSE 29 46 29.65 1004 5 8 N/A
4:35 pm 16:35 Cloudy 69 20.6 40 4.5 35 35 SE 29 46 29.65 1004 7 11 N/A
4:55 pm 16:55 Cloudy 68 20.2 42 5.3 38 38 SE 26 43 29.65 1004 10 16 N/A
5:15 pm 17:15 Cloudy with Haze 68 20 44 6.5 42 42 SE 20 31 29.65 1004 5 8 N/A
5:35 pm 17:35 Cloudy with Light Rain 67 19.3 45 7.1 45 45 SE 23 37 29.65 1004 10 16 N/A
5:55 pm 17:55 Cloudy with Drizzle 66 19.1 45 7 46 46 SE 23 37 29.65 1004 10 16 N/A
6:15 pm 18:15 Cloudy 65 18.6 45 7.2 48 48 SSE 20 31 29.66 1004 10 16 N/A
6:35 pm 18:35 Cloudy 65 18.2 46 7.5 50 50 SSE 18 30 29.65 1004 10 16 N/A
6:55 pm 18:55 Cloudy 65 18.1 46 7.5 50 50 SSE 17 28 29.65 1004 10 16 N/A
7:15 pm 19:15 Cloudy 64 17.7 46 7.6 52 52 SSE 22 35 29.66 1004 10 16 N/A
7:35 pm 19:35 Cloudy 63 17.2 46 8 55 55 SSE 20 31 29.66 1004 10 16 N/A
7:55 pm 19:55 Cloudy 63 17.1 46 8 55 55 SE 22 35 29.64 1004 10 16 N/A
8:15 pm 20:15 Cloudy 62 16.9 46 8 56 56 SE 25 41 29.59 1002 10 16 N/A
8:35 pm 20:35 Cloudy 62 16.8 46 8 56 56 SE 30 48 29.59 1002 10 16 N/A
8:55 pm 20:55 Cloudy 62 16.7 47 8.1 57 57 SE 26 43 29.59 1002 10 16 N/A
9:15 pm 21:15 Cloudy 62 16.5 47 8.2 58 58 SE 28 44 29.59 1002 10 16 N/A
9:35 pm 21:35 Cloudy 62 16.5 47 8.5 59 59 SE 23 37 29.58 1002 10 16 N/A
9:55 pm 21:55 Cloudy 62 16.7 47 8.5 59 59 SE 29 46 29.56 1001 10 16 N/A
10:15 pm 22:15 Cloudy 62 16.7 47 8.5 59 59 SE 30 48 29.54 1000 10 16 N/A
10:35 pm 22:35 Cloudy 62 16.6 48 9.1 61 61 SE 26 43 29.55 1001 10 16 N/A
10:55 pm 22:55 Cloudy 63 17 50 9.8 63 63 SE 29 46 29.52 1000 10 16 N/A
11:15 pm 23:15 Cloudy with Nearby Thunderstorms 63 17 50 10.1 64 64 SE 26 43 29.49 999 10 16 N/A
11:35 pm 23:35 Cloudy with Strong Thunderstorms 56 13.6 53 11.7 88 88 SW 12 19 29.63 1003 1 2 0.54 13.72
11:55 pm 23:55 Cloudy with Thunderstorms 55 13 54 12.3 96 96 SE 16 26 29.60 1002 7 11 0.76 19.30

Powered by AerisWeather